Weather History for Waseca, MN

Change the Weather History Date:

Saturday, January 18, 2014

  Actual Average Record
Temperature  
Mean Temperature 14 °F -  
Max Temperature 21 °F 19 °F 48 °F (1919)
Min Temperature 6 °F 1 °F -34 °F (1970)
Degree Days  
Heating Degree Days 52    
Moisture  
Dew Point 13 °F    
Average Humidity 81    
Maximum Humidity 93    
Minimum Humidity 68    
Precipitation  
Precipitation 0.00 in - - ()
Sea Level Pressure  
Sea Level Pressure 29.74 in    
Wind  
Wind Speed 13 mph (SE)    
Max Wind Speed 20 mph    
Max Gust Speed 31 mph    
Visibility 7 miles    
Events Snow    
Averages and records for this station are not official NWS values.
T = Trace of Precipitation, MM = Missing Value Source: NWS Daily Summary

Daily Weather History Graph

Daily Weather History Graph

Search for Another Location

Airport:

Trip Planner

Search our weather history database for the weather conditions in past years. The results will help you decide how hot, cold, wet, or windy it might be!

Date:

Astronomy

Jan. 18, 2014 Rise Set
Actual Time 7:44 AM CST 5:05 PM CST
Civil Twilight 7:12 AM CST 5:37 PM CST
Nautical Twilight 6:36 AM CST 6:13 PM CST
Astronomical Twilight 6:02 AM CST 6:47 PM CST
Moon 7:55 PM CST (1/18) 8:37 AM CST (1/18)
Length of Visible Light 10h 25m
Length of Day
9h 21m
Waning Gibbous, 94% of the Moon is Illuminated
Jan 18
Waning Gibbous
Jan 23
Last Quarter
Jan 30
New
Feb 6
First Quarter
Feb 14
Full

Hourly Weather History & Observations

Time (CST) Temp. Windchill Dew Point Humidity Pressure Visibility Wind Dir Wind Speed Gust Speed Precip Events Conditions
12:15 AM 19.4 °F 7.9 °F 12.2 °F 74% 29.75 in 10.0 mi SSE 10.4 mph - N/A   Overcast
12:35 AM 19.4 °F 8.6 °F 10.4 °F 68% 29.74 in 10.0 mi SE 9.2 mph - N/A   Overcast
12:55 AM 17.6 °F 5.7 °F 10.4 °F 73% 29.72 in 10.0 mi SE 10.4 mph - N/A   Overcast
1:15 AM 17.6 °F 5.7 °F 10.4 °F 73% 29.71 in 10.0 mi SE 10.4 mph - N/A   Overcast
1:35 AM 19.4 °F 7.9 °F 10.4 °F 68% 29.69 in 5.0 mi SE 10.4 mph - N/A Snow Light Snow
1:55 AM 19.4 °F 5.5 °F 12.2 °F 74% 29.67 in 2.0 mi SE 15.0 mph - N/A Snow Light Snow
2:15 AM 17.6 °F 3.2 °F 12.2 °F 79% 29.64 in 2.0 mi SE 15.0 mph - N/A Snow Light Snow
2:35 AM 19.4 °F 5.0 °F 14.0 °F 80% 29.63 in 4.0 mi SE 16.1 mph - N/A Snow Light Snow
2:55 AM 19.4 °F 4.5 °F 14.0 °F 80% 29.61 in 1.0 mi SE 17.3 mph - N/A Snow Snow
3:15 AM 19.4 °F 3.6 °F 14.0 °F 80% 29.60 in 1.2 mi SE 19.6 mph 25.3 mph N/A Snow Light Snow
3:35 AM 19.4 °F 4.1 °F 14.0 °F 80% 29.58 in 1.8 mi SE 18.4 mph 24.2 mph N/A Snow Light Snow
3:55 AM 19.4 °F 5.0 °F 15.8 °F 86% 29.56 in 2.5 mi SE 16.1 mph 26.5 mph N/A Snow Light Snow
4:15 AM 19.4 °F 4.1 °F 15.8 °F 86% 29.54 in 0.8 mi SE 18.4 mph 31.1 mph N/A Snow Snow
4:35 AM 19.4 °F 5.0 °F 15.8 °F 86% 29.52 in 0.8 mi SE 16.1 mph - N/A Snow Snow
4:55 AM 19.4 °F 4.5 °F 15.8 °F 86% 29.51 in 2.0 mi SE 17.3 mph 24.2 mph N/A Snow Light Snow
5:15 AM 19.4 °F 4.1 °F 15.8 °F 86% 29.50 in 3.0 mi SE 18.4 mph 23.0 mph N/A Snow Light Snow
5:35 AM 19.4 °F 5.0 °F 15.8 °F 86% 29.50 in 1.8 mi SE 16.1 mph 23.0 mph N/A Snow Light Snow
5:55 AM 19.4 °F 4.5 °F 15.8 °F 86% 29.49 in 1.0 mi SE 17.3 mph 20.7 mph N/A Snow Snow
6:15 AM 19.4 °F 5.0 °F 15.8 °F 86% 29.48 in 1.2 mi SE 16.1 mph - N/A Snow Light Snow
6:35 AM 19.4 °F 5.5 °F 15.8 °F 86% 29.48 in 1.5 mi SE 15.0 mph - N/A Snow Light Snow
6:55 AM 19.4 °F 4.5 °F 15.8 °F 86% 29.48 in 5.0 mi SE 17.3 mph - N/A Snow Light Snow
7:15 AM 19.4 °F 6.6 °F 15.8 °F 86% 29.48 in 5.0 mi SE 12.7 mph - N/A   Overcast
7:35 AM 19.4 °F 7.2 °F 15.8 °F 86% 29.49 in 2.0 mi ESE 11.5 mph - N/A Snow Light Snow
7:55 AM 19.4 °F 7.9 °F 15.8 °F 86% 29.50 in 4.0 mi East 10.4 mph - N/A Snow Light Snow
8:14 AM 19.4 °F 6.6 °F 15.8 °F 86% 29.50 in 10.0 mi East 12.7 mph - N/A   Overcast
8:35 AM 21.2 °F 7.8 °F 17.6 °F 86% 29.52 in 4.0 mi East 15.0 mph 19.6 mph N/A   Overcast
8:55 AM 19.4 °F 4.1 °F 15.8 °F 86% 29.54 in 1.2 mi East 18.4 mph - N/A Snow Light Snow
9:15 AM 19.4 °F 5.0 °F 15.8 °F 86% 29.56 in 1.8 mi East 16.1 mph - N/A Snow Light Snow
9:35 AM 19.4 °F 5.0 °F 14.0 °F 80% 29.59 in 3.0 mi East 16.1 mph 20.7 mph N/A Snow Light Snow
9:55 AM 19.4 °F 5.0 °F 14.0 °F 80% 29.61 in 5.0 mi East 16.1 mph 23.0 mph N/A   Overcast
10:15 AM 19.4 °F 4.5 °F 14.0 °F 80% 29.64 in 7.0 mi ENE 17.3 mph 20.7 mph N/A   Overcast
10:35 AM 19.4 °F 6.0 °F 14.0 °F 80% 29.66 in 5.0 mi ENE 13.8 mph - N/A Snow Light Snow
10:55 AM 19.4 °F 6.0 °F 14.0 °F 80% 29.70 in 5.0 mi NE 13.8 mph 21.9 mph N/A   Haze
11:15 AM 19.4 °F 6.0 °F 14.0 °F 80% 29.71 in 7.0 mi NE 13.8 mph - N/A   Overcast
11:35 AM 19.4 °F 7.2 °F 14.0 °F 80% 29.72 in 7.0 mi NE 11.5 mph 17.3 mph N/A   Scattered Clouds
11:55 AM 19.4 °F 5.0 °F 12.2 °F 74% 29.76 in 10.0 mi NNE 16.1 mph - N/A   Clear
12:15 PM 19.4 °F 5.5 °F 12.2 °F 74% 29.78 in 10.0 mi NNE 15.0 mph - N/A   Clear
12:36 PM 19.4 °F 5.5 °F 12.2 °F 74% 29.79 in 10.0 mi NNE 15.0 mph - N/A   Clear
12:55 PM 19.4 °F 5.0 °F 12.2 °F 74% 29.80 in 10.0 mi NNE 16.1 mph - N/A   Clear
1:16 PM 21.2 °F 8.9 °F 12.2 °F 68% 29.82 in 10.0 mi NNE 12.7 mph - N/A   Clear
1:35 PM 21.2 °F 8.3 °F 12.2 °F 68% 29.84 in 10.0 mi North 13.8 mph - N/A   Clear
1:56 PM 21.2 °F 8.9 °F 12.2 °F 68% 29.86 in 10.0 mi North 12.7 mph - N/A   Clear
2:15 PM 21.2 °F 9.5 °F 14.0 °F 74% 29.86 in 10.0 mi North 11.5 mph - N/A   Clear
2:36 PM 21.2 °F 9.5 °F 14.0 °F 74% 29.87 in 10.0 mi North 11.5 mph - N/A   Clear
2:55 PM 21.2 °F 8.9 °F 14.0 °F 74% 29.88 in 10.0 mi North 12.7 mph - N/A   Clear
3:15 PM 21.2 °F 11.7 °F 14.0 °F 74% 29.88 in 10.0 mi North 8.1 mph - N/A   Clear
3:35 PM 21.2 °F 12.6 °F 14.0 °F 74% 29.90 in 10.0 mi NNW 6.9 mph - N/A   Clear
3:56 PM 19.4 °F 11.5 °F 12.2 °F 74% 29.91 in 10.0 mi NW 5.8 mph - N/A   Clear
4:15 PM 19.4 °F 10.4 °F 12.2 °F 74% 29.93 in 10.0 mi NW 6.9 mph - N/A   Clear
4:36 PM 17.6 °F 7.3 °F 12.2 °F 79% 29.94 in 10.0 mi West 8.1 mph - N/A   Clear
4:55 PM 17.6 °F 5.7 °F 10.4 °F 73% 29.96 in 10.0 mi West 10.4 mph - N/A   Clear
5:15 PM 17.6 °F 4.3 °F 10.4 °F 73% 29.97 in 10.0 mi WNW 12.7 mph - N/A   Clear
5:36 PM 17.6 °F 5.7 °F 12.2 °F 79% 29.98 in 10.0 mi WNW 10.4 mph - N/A   Clear
5:55 PM 14.0 °F 2.9 °F 10.4 °F 86% 29.98 in 10.0 mi WNW 8.1 mph - N/A   Clear
6:16 PM 14.0 °F 3.9 °F 10.4 °F 86% 29.97 in 10.0 mi West 6.9 mph - N/A   Clear
6:35 PM 12.2 °F 2.9 °F 8.6 °F 85% 29.97 in 10.0 mi WSW 5.8 mph - N/A   Clear
6:55 PM 8.6 °F -4.7 °F 5.0 °F 85% 29.96 in 10.0 mi WSW 9.2 mph - N/A   Clear
7:16 PM 8.6 °F -1.3 °F 3.2 °F 79% 29.96 in 10.0 mi West 5.8 mph - N/A   Clear
7:35 PM 6.8 °F -3.5 °F 3.2 °F 85% 29.95 in 10.0 mi WSW 5.8 mph - N/A   Clear
7:55 PM 8.6 °F 0.1 °F 5.0 °F 85% 29.95 in 10.0 mi WSW 4.6 mph - N/A   Clear
8:16 PM 10.4 °F 0.8 °F 6.8 °F 85% 29.94 in 10.0 mi WSW 5.8 mph - N/A   Clear
8:36 PM 12.2 °F 0.7 °F 8.6 °F 85% 29.93 in 10.0 mi SW 8.1 mph - N/A   Scattered Clouds
8:55 PM 14.0 °F 3.9 °F 10.4 °F 86% 29.93 in 10.0 mi SW 6.9 mph - N/A   Clear
9:16 PM 14.0 °F 2.0 °F 10.4 °F 86% 29.92 in 10.0 mi SW 9.2 mph - N/A   Scattered Clouds
9:35 PM 14.0 °F 2.9 °F 10.4 °F 86% 29.90 in 10.0 mi SW 8.1 mph - N/A   Scattered Clouds
9:55 PM 14.0 °F 3.9 °F 12.2 °F 93% 29.89 in 10.0 mi SW 6.9 mph - N/A   Clear
10:15 PM 14.0 °F 1.2 °F 12.2 °F 93% 29.87 in 10.0 mi SSW 10.4 mph - N/A   Clear
10:35 PM 15.8 °F 4.2 °F 12.2 °F 86% 29.86 in 10.0 mi SW 9.2 mph - N/A   Clear
10:55 PM 17.6 °F 5.0 °F 14.0 °F 86% 29.85 in 10.0 mi SW 11.5 mph - N/A   Clear
11:15 PM 17.6 °F 3.7 °F 14.0 °F 86% 29.83 in 10.0 mi SSW 13.8 mph - N/A   Scattered Clouds
11:35 PM 19.4 °F 5.5 °F 15.8 °F 86% 29.81 in 10.0 mi SW 15.0 mph - N/A   Scattered Clouds
11:55 PM 19.4 °F 5.5 °F 15.8 °F 86% 29.80 in 10.0 mi SSW 15.0 mph - N/A   Scattered Clouds